Year,Month,Day,Hour,Minute,Value (Times are PST for temperature in C)
2015,08,22,00,00,12.10
2015,08,22,00,01,12.10
2015,08,22,00,02,12.10
2015,08,22,00,03,12.10
2015,08,22,00,04,12.10
2015,08,22,00,05,12.10
2015,08,22,00,06,12.10
2015,08,22,00,07,12.10
2015,08,22,00,08,12.10
2015,08,22,00,09,12.10
2015,08,22,00,10,12.10
2015,08,22,00,11,12.00
2015,08,22,00,12,12.00
2015,08,22,00,13,12.00
2015,08,22,00,14,12.00
2015,08,22,00,15,11.90
2015,08,22,00,16,11.90
2015,08,22,00,17,11.90
2015,08,22,00,18,11.90
2015,08,22,00,19,11.90
2015,08,22,00,20,11.90
2015,08,22,00,21,11.90
2015,08,22,00,22,11.90
2015,08,22,00,23,11.90
2015,08,22,00,24,11.90
2015,08,22,00,25,11.90
2015,08,22,00,26,11.90
2015,08,22,00,27,11.90
2015,08,22,00,28,11.90
2015,08,22,00,29,11.90
2015,08,22,00,30,11.90
2015,08,22,00,31,11.90
2015,08,22,00,32,11.90
2015,08,22,00,33,11.90
2015,08,22,00,34,11.80
2015,08,22,00,35,11.80
2015,08,22,00,36,11.80
2015,08,22,00,37,11.80
2015,08,22,00,38,11.90
2015,08,22,00,39,11.90
2015,08,22,00,40,11.90
2015,08,22,00,41,11.90
2015,08,22,00,42,11.90
2015,08,22,00,43,11.90
2015,08,22,00,44,11.90
2015,08,22,00,45,11.90
2015,08,22,00,46,11.90
2015,08,22,00,47,11.90
2015,08,22,00,48,11.80
2015,08,22,00,49,11.80
2015,08,22,00,50,11.80
2015,08,22,00,51,11.80
2015,08,22,00,52,11.80
2015,08,22,00,53,11.80
2015,08,22,00,54,11.70
2015,08,22,00,55,11.70
2015,08,22,00,56,11.70
2015,08,22,00,57,11.70
2015,08,22,00,58,11.60
2015,08,22,00,59,11.60
2015,08,22,01,00,11.60
2015,08,22,01,01,11.50
2015,08,22,01,02,11.50
2015,08,22,01,03,11.50
2015,08,22,01,04,11.50
2015,08,22,01,05,11.40
2015,08,22,01,06,11.40
2015,08,22,01,07,11.40
2015,08,22,01,08,11.40
2015,08,22,01,09,11.40
2015,08,22,01,10,11.30
2015,08,22,01,11,11.30
2015,08,22,01,12,11.30
2015,08,22,01,13,11.30
2015,08,22,01,14,11.30
2015,08,22,01,15,11.30
2015,08,22,01,16,11.30
2015,08,22,01,17,11.30
2015,08,22,01,18,11.30
2015,08,22,01,19,11.30
2015,08,22,01,20,11.20
2015,08,22,01,21,11.20
2015,08,22,01,22,11.20
2015,08,22,01,23,11.20
2015,08,22,01,24,11.20
2015,08,22,01,25,11.20
2015,08,22,01,26,11.20
2015,08,22,01,27,11.20
2015,08,22,01,28,11.20
2015,08,22,01,29,11.20
2015,08,22,01,30,11.20
2015,08,22,01,31,11.20
2015,08,22,01,32,11.20
2015,08,22,01,33,11.20
2015,08,22,01,34,11.20
2015,08,22,01,35,11.20
2015,08,22,01,36,11.20
2015,08,22,01,37,11.20
2015,08,22,01,38,11.20
2015,08,22,01,39,11.20
2015,08,22,01,40,11.20
2015,08,22,01,41,11.20
2015,08,22,01,42,11.20
2015,08,22,01,43,11.20
2015,08,22,01,44,11.20
2015,08,22,01,45,11.20
2015,08,22,01,46,11.20
2015,08,22,01,47,11.20
2015,08,22,01,48,11.20
2015,08,22,01,49,11.20
2015,08,22,01,50,11.20
2015,08,22,01,51,11.20
2015,08,22,01,52,11.20
2015,08,22,01,53,11.20
2015,08,22,01,54,11.20
2015,08,22,01,55,11.20
2015,08,22,01,56,11.20
2015,08,22,01,57,11.20
2015,08,22,01,58,11.20
2015,08,22,01,59,11.10
2015,08,22,02,00,11.10
2015,08,22,02,01,11.10
2015,08,22,02,02,11.10
2015,08,22,02,03,11.10
2015,08,22,02,04,11.00
2015,08,22,02,05,11.00
2015,08,22,02,06,11.00
2015,08,22,02,07,10.90
2015,08,22,02,08,10.90
2015,08,22,02,09,10.90
2015,08,22,02,10,10.90
2015,08,22,02,11,10.90
2015,08,22,02,12,10.90
2015,08,22,02,13,10.90
2015,08,22,02,14,10.90
2015,08,22,02,15,10.90
2015,08,22,02,16,10.80
2015,08,22,02,17,10.80
2015,08,22,02,18,10.80
2015,08,22,02,19,10.80
2015,08,22,02,20,10.80
2015,08,22,02,21,10.80
2015,08,22,02,22,10.80
2015,08,22,02,23,10.80
2015,08,22,02,24,10.80
2015,08,22,02,25,10.80
2015,08,22,02,26,10.80
2015,08,22,02,27,10.70
2015,08,22,02,28,10.70
2015,08,22,02,29,10.70
2015,08,22,02,30,10.70
2015,08,22,02,31,10.70
2015,08,22,02,32,10.70
2015,08,22,02,33,10.70
2015,08,22,02,34,10.70
2015,08,22,02,35,10.70
2015,08,22,02,36,10.70
2015,08,22,02,37,10.70
2015,08,22,02,38,10.70
2015,08,22,02,39,10.70
2015,08,22,02,40,10.70
2015,08,22,02,41,10.70
2015,08,22,02,42,10.70
2015,08,22,02,43,10.70
2015,08,22,02,44,10.70
2015,08,22,02,45,10.70
2015,08,22,02,46,10.70
2015,08,22,02,47,10.70
2015,08,22,02,48,10.70
2015,08,22,02,49,10.80
2015,08,22,02,50,10.80
2015,08,22,02,51,10.80
2015,08,22,02,52,10.80
2015,08,22,02,53,10.80
2015,08,22,02,54,10.80
2015,08,22,02,55,10.80
2015,08,22,02,56,10.80
2015,08,22,02,57,10.70
2015,08,22,02,58,10.70
2015,08,22,02,59,10.70
2015,08,22,03,00,10.70
2015,08,22,03,01,10.70
2015,08,22,03,02,10.70
2015,08,22,03,03,10.70
2015,08,22,03,04,10.70
2015,08,22,03,05,10.70
2015,08,22,03,06,10.60
2015,08,22,03,07,10.60
2015,08,22,03,08,10.60
2015,08,22,03,09,10.60
2015,08,22,03,10,10.60
2015,08,22,03,11,10.60
2015,08,22,03,12,10.60
2015,08,22,03,13,10.60
2015,08,22,03,14,10.60
2015,08,22,03,15,10.60
2015,08,22,03,16,10.60
2015,08,22,03,17,10.60
2015,08,22,03,18,10.60
2015,08,22,03,19,10.60
2015,08,22,03,20,10.60
2015,08,22,03,21,10.60
2015,08,22,03,22,10.60
2015,08,22,03,23,10.60
2015,08,22,03,24,10.60
2015,08,22,03,25,10.60
2015,08,22,03,26,10.60
2015,08,22,03,27,10.60
2015,08,22,03,28,10.60
2015,08,22,03,29,10.60
2015,08,22,03,30,10.60
2015,08,22,03,31,10.60
2015,08,22,03,32,10.60
2015,08,22,03,33,10.60
2015,08,22,03,34,10.60
2015,08,22,03,35,10.60
2015,08,22,03,36,10.50
2015,08,22,03,37,10.50
2015,08,22,03,38,10.50
2015,08,22,03,39,10.50
2015,08,22,03,40,10.50
2015,08,22,03,41,10.50
2015,08,22,03,42,10.40
2015,08,22,03,43,10.40
2015,08,22,03,44,10.40
2015,08,22,03,45,10.40
2015,08,22,03,46,10.40
2015,08,22,03,47,10.40
2015,08,22,03,48,10.40
2015,08,22,03,49,10.40
2015,08,22,03,50,10.40
2015,08,22,03,51,10.40
2015,08,22,03,52,10.40
2015,08,22,03,53,10.40
2015,08,22,03,54,10.40
2015,08,22,03,55,10.40
2015,08,22,03,56,10.40
2015,08,22,03,57,10.40
2015,08,22,03,58,10.40
2015,08,22,03,59,10.40
2015,08,22,04,00,10.40
2015,08,22,04,01,10.40
2015,08,22,04,02,10.40
2015,08,22,04,03,10.40
2015,08,22,04,04,10.40
2015,08,22,04,05,10.40
2015,08,22,04,06,10.40
2015,08,22,04,07,10.40
2015,08,22,04,08,10.40
2015,08,22,04,09,10.40
2015,08,22,04,10,10.40
2015,08,22,04,11,10.40
2015,08,22,04,12,10.40
2015,08,22,04,13,10.40
2015,08,22,04,14,10.40
2015,08,22,04,15,10.40
2015,08,22,04,16,10.40
2015,08,22,04,17,10.40
2015,08,22,04,18,10.40
2015,08,22,04,19,10.40
2015,08,22,04,20,10.40
2015,08,22,04,21,10.40
2015,08,22,04,22,10.40
2015,08,22,04,23,10.40
2015,08,22,04,24,10.40
2015,08,22,04,25,10.40
2015,08,22,04,26,10.40
2015,08,22,04,27,10.30
2015,08,22,04,28,10.30
2015,08,22,04,29,10.30
2015,08,22,04,30,10.30
2015,08,22,04,31,10.30
2015,08,22,04,32,10.30
2015,08,22,04,33,10.20
2015,08,22,04,34,10.20
2015,08,22,04,35,10.20
2015,08,22,04,36,10.20
2015,08,22,04,37,10.20
2015,08,22,04,38,10.10
2015,08,22,04,39,10.10
2015,08,22,04,40,10.10
2015,08,22,04,41,10.10
2015,08,22,04,42,10.10
2015,08,22,04,43,10.10
2015,08,22,04,44,10.10
2015,08,22,04,45,10.10
2015,08,22,04,46,10.10
2015,08,22,04,47,10.10
2015,08,22,04,48,10.10
2015,08,22,04,49,10.20
2015,08,22,04,50,10.20
2015,08,22,04,51,10.20
2015,08,22,04,52,10.20
2015,08,22,04,53,10.20
2015,08,22,04,54,10.20
2015,08,22,04,55,10.20
2015,08,22,04,56,10.20
2015,08,22,04,57,10.20
2015,08,22,04,58,10.20
2015,08,22,04,59,10.20
2015,08,22,05,00,10.20
2015,08,22,05,01,10.20
2015,08,22,05,02,10.20
2015,08,22,05,03,10.20
2015,08,22,05,04,10.20
2015,08,22,05,05,10.20
2015,08,22,05,06,10.20
2015,08,22,05,07,10.20
2015,08,22,05,08,10.20
2015,08,22,05,09,10.10
2015,08,22,05,10,10.10
2015,08,22,05,11,10.10
2015,08,22,05,12,10.10
2015,08,22,05,13,10.00
2015,08,22,05,14,10.00
2015,08,22,05,15,10.00
2015,08,22,05,16,10.00
2015,08,22,05,17,9.90
2015,08,22,05,18,9.90
2015,08,22,05,19,9.90
2015,08,22,05,20,9.90
2015,08,22,05,21,9.90
2015,08,22,05,22,9.80
2015,08,22,05,23,9.80
2015,08,22,05,24,9.80
2015,08,22,05,25,9.80
2015,08,22,05,26,9.80
2015,08,22,05,27,9.80
2015,08,22,05,28,9.80
2015,08,22,05,29,9.80
2015,08,22,05,30,9.80
2015,08,22,05,31,9.90
2015,08,22,05,32,9.90
2015,08,22,05,33,9.90
2015,08,22,05,34,10.00
2015,08,22,05,35,10.00
2015,08,22,05,36,10.00
2015,08,22,05,37,10.00
2015,08,22,05,38,10.00
2015,08,22,05,39,10.00
2015,08,22,05,40,10.00
2015,08,22,05,41,10.00
2015,08,22,05,42,9.90
2015,08,22,05,43,9.90
2015,08,22,05,44,9.90
2015,08,22,05,45,9.80
2015,08,22,05,46,9.80
2015,08,22,05,47,9.80
2015,08,22,05,48,9.80
2015,08,22,05,49,9.80
2015,08,22,05,50,9.70
2015,08,22,05,51,9.70
2015,08,22,05,52,9.70
2015,08,22,05,53,9.70
2015,08,22,05,54,9.70
2015,08,22,05,55,9.70
2015,08,22,05,56,9.70
2015,08,22,05,57,9.70
2015,08,22,05,58,9.70
2015,08,22,05,59,9.60
2015,08,22,06,00,9.60
2015,08,22,06,01,9.60
2015,08,22,06,02,9.60
2015,08,22,06,03,9.60
2015,08,22,06,04,9.60
2015,08,22,06,05,9.60
2015,08,22,06,06,9.60
2015,08,22,06,07,9.70
2015,08,22,06,08,9.70
2015,08,22,06,09,9.70
2015,08,22,06,10,9.70
2015,08,22,06,11,9.70
2015,08,22,06,12,9.70
2015,08,22,06,13,9.70
2015,08,22,06,14,9.70
2015,08,22,06,15,9.70
2015,08,22,06,16,9.70
2015,08,22,06,17,9.70
2015,08,22,06,18,9.70
2015,08,22,06,19,9.70
2015,08,22,06,20,9.70
2015,08,22,06,21,9.70
2015,08,22,06,22,9.70
2015,08,22,06,23,9.70
2015,08,22,06,24,9.70
2015,08,22,06,25,9.70
2015,08,22,06,26,9.70
2015,08,22,06,27,9.60
2015,08,22,06,28,9.60
2015,08,22,06,29,9.60
2015,08,22,06,30,9.60
2015,08,22,06,31,9.60
2015,08,22,06,32,9.60
2015,08,22,06,33,9.60
2015,08,22,06,34,9.60
2015,08,22,06,35,9.70
2015,08,22,06,36,9.70
2015,08,22,06,37,9.70
2015,08,22,06,38,9.70
2015,08,22,06,39,9.70
2015,08,22,06,40,9.70
2015,08,22,06,41,9.70
2015,08,22,06,42,9.80
2015,08,22,06,43,9.80
2015,08,22,06,44,9.80
2015,08,22,06,45,9.80
2015,08,22,06,46,9.80
2015,08,22,06,47,9.80
2015,08,22,06,48,9.80
2015,08,22,06,49,9.80
2015,08,22,06,50,9.80
2015,08,22,06,51,9.80
2015,08,22,06,52,9.80
2015,08,22,06,53,9.90
2015,08,22,06,54,9.90
2015,08,22,06,55,9.90
2015,08,22,06,56,9.90
2015,08,22,06,57,9.90
2015,08,22,06,58,9.90
2015,08,22,06,59,9.90
2015,08,22,07,00,9.90
2015,08,22,07,01,10.00
2015,08,22,07,02,10.00
2015,08,22,07,03,10.00
2015,08,22,07,04,10.10
2015,08,22,07,05,10.10
2015,08,22,07,06,10.10
2015,08,22,07,07,10.20
2015,08,22,07,08,10.20
2015,08,22,07,09,10.20
2015,08,22,07,10,10.30
2015,08,22,07,11,10.30
2015,08,22,07,12,10.30
2015,08,22,07,13,10.30
2015,08,22,07,14,10.40
2015,08,22,07,15,10.40
2015,08,22,07,16,10.50
2015,08,22,07,17,10.60
2015,08,22,07,18,10.60
2015,08,22,07,19,10.70
2015,08,22,07,20,10.70
2015,08,22,07,21,10.80
2015,08,22,07,22,10.80
2015,08,22,07,23,10.90
2015,08,22,07,24,10.90
2015,08,22,07,25,11.00
2015,08,22,07,26,11.10
2015,08,22,07,27,11.10
2015,08,22,07,28,11.20
2015,08,22,07,29,11.20
2015,08,22,07,30,11.30
2015,08,22,07,31,11.30
2015,08,22,07,32,11.40
2015,08,22,07,33,11.50
2015,08,22,07,34,11.60
2015,08,22,07,35,11.70
2015,08,22,07,36,11.70
2015,08,22,07,37,11.80
2015,08,22,07,38,11.90
2015,08,22,07,39,11.90
2015,08,22,07,40,12.00
2015,08,22,07,41,12.10
2015,08,22,07,42,12.20
2015,08,22,07,43,12.20
2015,08,22,07,44,12.30
2015,08,22,07,45,12.40
2015,08,22,07,46,12.50
2015,08,22,07,47,12.60
2015,08,22,07,48,12.80
2015,08,22,07,49,12.90
2015,08,22,07,50,13.10
2015,08,22,07,51,13.20
2015,08,22,07,52,13.30
2015,08,22,07,53,13.50
2015,08,22,07,54,13.50
2015,08,22,07,55,13.70
2015,08,22,07,56,13.80
2015,08,22,07,57,13.90
2015,08,22,07,58,14.00
2015,08,22,07,59,14.20
2015,08,22,08,00,14.40
2015,08,22,08,01,14.50
2015,08,22,08,02,14.60
2015,08,22,08,03,14.70
2015,08,22,08,04,14.80
2015,08,22,08,05,14.80
2015,08,22,08,06,15.00
2015,08,22,08,07,15.10
2015,08,22,08,08,15.20
2015,08,22,08,09,15.30
2015,08,22,08,10,15.50
2015,08,22,08,11,15.60
2015,08,22,08,12,15.70
2015,08,22,08,13,15.80
2015,08,22,08,14,15.90
2015,08,22,08,15,16.00
2015,08,22,08,16,16.10
2015,08,22,08,17,16.10
2015,08,22,08,18,16.20
2015,08,22,08,19,16.30
2015,08,22,08,20,16.30
2015,08,22,08,21,16.40
2015,08,22,08,22,16.50
2015,08,22,08,23,16.50
2015,08,22,08,24,16.60
2015,08,22,08,25,16.70
2015,08,22,08,26,16.70
2015,08,22,08,27,16.80
2015,08,22,08,28,16.80
2015,08,22,08,29,16.90
2015,08,22,08,30,16.90
2015,08,22,08,31,17.00
2015,08,22,08,32,17.00
2015,08,22,08,33,17.10
2015,08,22,08,34,17.10
2015,08,22,08,35,17.10
2015,08,22,08,36,17.20
2015,08,22,08,37,17.20
2015,08,22,08,38,17.30
2015,08,22,08,39,17.30
2015,08,22,08,40,17.30
2015,08,22,08,41,17.40
2015,08,22,08,42,17.40
2015,08,22,08,43,17.50
2015,08,22,08,44,17.50
2015,08,22,08,45,17.60
2015,08,22,08,46,17.60
2015,08,22,08,47,17.60
2015,08,22,08,48,17.70
2015,08,22,08,49,17.70
2015,08,22,08,50,17.70
2015,08,22,08,51,17.70
2015,08,22,08,52,17.70
2015,08,22,08,53,17.80
2015,08,22,08,54,17.80
2015,08,22,08,55,17.80
2015,08,22,08,56,17.80
2015,08,22,08,57,17.80
2015,08,22,08,58,17.90
2015,08,22,08,59,17.90
2015,08,22,09,00,17.90
2015,08,22,09,01,17.90
2015,08,22,09,02,18.00
2015,08,22,09,03,18.00
2015,08,22,09,04,18.10
2015,08,22,09,05,18.10
2015,08,22,09,06,18.20
2015,08,22,09,07,18.20
2015,08,22,09,08,18.30
2015,08,22,09,09,18.30
2015,08,22,09,10,18.40
2015,08,22,09,11,18.50
2015,08,22,09,12,18.50
2015,08,22,09,13,18.60
2015,08,22,09,14,18.60
2015,08,22,09,15,18.70
2015,08,22,09,16,18.70
2015,08,22,09,17,18.70
2015,08,22,09,18,18.70
2015,08,22,09,19,18.70
2015,08,22,09,20,18.80
2015,08,22,09,21,18.80
2015,08,22,09,22,18.80
2015,08,22,09,23,18.80
2015,08,22,09,24,18.90
2015,08,22,09,25,18.90
2015,08,22,09,26,18.90
2015,08,22,09,27,18.90
2015,08,22,09,28,19.00
2015,08,22,09,29,19.00
2015,08,22,09,30,19.10
2015,08,22,09,31,19.10
2015,08,22,09,32,19.10
2015,08,22,09,33,19.10
2015,08,22,09,34,19.20
2015,08,22,09,35,19.20
2015,08,22,09,36,19.30
2015,08,22,09,37,19.30
2015,08,22,09,38,19.30
2015,08,22,09,39,19.30
2015,08,22,09,40,19.30
2015,08,22,09,41,19.30
2015,08,22,09,42,19.30
2015,08,22,09,43,19.30
2015,08,22,09,44,19.30
2015,08,22,09,45,19.40
2015,08,22,09,46,19.40
2015,08,22,09,47,19.40
2015,08,22,09,48,19.50
2015,08,22,09,49,19.50
2015,08,22,09,50,19.50
2015,08,22,09,51,19.60
2015,08,22,09,52,19.70
2015,08,22,09,53,19.70
2015,08,22,09,54,19.70
2015,08,22,09,55,19.70
2015,08,22,09,56,19.80
2015,08,22,09,57,19.80
2015,08,22,09,58,19.90
2015,08,22,09,59,19.90
2015,08,22,10,00,19.90
2015,08,22,10,01,19.90
2015,08,22,10,02,19.90
2015,08,22,10,03,19.90
2015,08,22,10,04,19.90
2015,08,22,10,05,19.90
2015,08,22,10,06,19.90
2015,08,22,10,07,20.00
2015,08,22,10,08,20.00
2015,08,22,10,09,20.00
2015,08,22,10,10,20.00
2015,08,22,10,11,20.00
2015,08,22,10,12,20.00
2015,08,22,10,13,20.00
2015,08,22,10,14,20.00
2015,08,22,10,15,20.00
2015,08,22,10,16,20.00
2015,08,22,10,17,20.10
2015,08,22,10,18,20.10
2015,08,22,10,19,20.20
2015,08,22,10,20,20.20
2015,08,22,10,21,20.20
2015,08,22,10,22,20.30
2015,08,22,10,23,20.30
2015,08,22,10,24,20.40
2015,08,22,10,25,20.40
2015,08,22,10,26,20.40
2015,08,22,10,27,20.40
2015,08,22,10,28,20.40
2015,08,22,10,29,20.50
2015,08,22,10,30,20.50
2015,08,22,10,31,20.60
2015,08,22,10,32,20.60
2015,08,22,10,33,20.60
2015,08,22,10,34,20.60
2015,08,22,10,35,20.60
2015,08,22,10,36,20.60
2015,08,22,10,37,20.60
2015,08,22,10,38,20.60
2015,08,22,10,39,20.60
2015,08,22,10,40,20.60
2015,08,22,10,41,20.60
2015,08,22,10,42,20.60
2015,08,22,10,43,20.60
2015,08,22,10,44,20.60
2015,08,22,10,45,20.60
2015,08,22,10,46,20.60
2015,08,22,10,47,20.60
2015,08,22,10,48,20.60
2015,08,22,10,49,20.60
2015,08,22,10,50,20.60
2015,08,22,10,51,20.60
2015,08,22,10,52,20.70
2015,08,22,10,53,20.70
2015,08,22,10,54,20.80
2015,08,22,10,55,20.80
2015,08,22,10,56,20.90
2015,08,22,10,57,20.90
2015,08,22,10,58,20.90
2015,08,22,10,59,20.90
2015,08,22,11,00,21.00
2015,08,22,11,01,21.00
2015,08,22,11,02,21.10
2015,08,22,11,03,21.10
2015,08,22,11,04,21.20
2015,08,22,11,05,21.10
2015,08,22,11,06,21.10
2015,08,22,11,07,21.10
2015,08,22,11,08,21.10
2015,08,22,11,09,21.10
2015,08,22,11,10,21.10
2015,08,22,11,11,21.10
2015,08,22,11,12,21.10
2015,08,22,11,13,21.10
2015,08,22,11,14,21.20
2015,08,22,11,15,21.20
2015,08,22,11,16,21.20
2015,08,22,11,17,21.20
2015,08,22,11,18,21.20
2015,08,22,11,19,21.20
2015,08,22,11,20,21.20
2015,08,22,11,21,21.20
2015,08,22,11,22,21.20
2015,08,22,11,23,21.30
2015,08,22,11,24,21.30
2015,08,22,11,25,21.40
2015,08,22,11,26,21.40
2015,08,22,11,27,21.50
2015,08,22,11,28,21.50
2015,08,22,11,29,21.40
2015,08,22,11,30,21.40
2015,08,22,11,31,21.40
2015,08,22,11,32,21.40
2015,08,22,11,33,21.40
2015,08,22,11,34,21.40
2015,08,22,11,35,21.40
2015,08,22,11,36,21.40
2015,08,22,11,37,21.40
2015,08,22,11,38,21.40
2015,08,22,11,39,21.40
2015,08,22,11,40,21.40
2015,08,22,11,41,21.50
2015,08,22,11,42,21.50
2015,08,22,11,43,21.50
2015,08,22,11,44,21.60
2015,08,22,11,45,21.60
2015,08,22,11,46,21.60
2015,08,22,11,47,21.60
2015,08,22,11,48,21.60
2015,08,22,11,49,21.60
2015,08,22,11,50,21.70
2015,08,22,11,51,21.70
2015,08,22,11,52,21.70
2015,08,22,11,53,21.70
2015,08,22,11,54,21.70
2015,08,22,11,55,21.80
2015,08,22,11,56,21.80
2015,08,22,11,57,21.80
2015,08,22,11,58,21.80
2015,08,22,11,59,21.80
2015,08,22,12,00,21.80
2015,08,22,12,01,21.80
2015,08,22,12,02,21.70
2015,08,22,12,03,21.60
2015,08,22,12,04,21.60
2015,08,22,12,05,21.60
2015,08,22,12,06,21.60
2015,08,22,12,07,21.60
2015,08,22,12,08,21.60
2015,08,22,12,09,21.60
2015,08,22,12,10,21.60
2015,08,22,12,11,21.70
2015,08,22,12,12,21.70
2015,08,22,12,13,21.70
2015,08,22,12,14,21.70
2015,08,22,12,15,21.70
2015,08,22,12,16,21.70
2015,08,22,12,17,21.70
2015,08,22,12,18,21.70
2015,08,22,12,19,21.70
2015,08,22,12,20,21.80
2015,08,22,12,21,21.80
2015,08,22,12,22,21.70
2015,08,22,12,23,21.70
2015,08,22,12,24,21.70
2015,08,22,12,25,21.80
2015,08,22,12,26,21.80
2015,08,22,12,27,21.80
2015,08,22,12,28,21.80
2015,08,22,12,29,21.80
2015,08,22,12,30,21.80
2015,08,22,12,31,21.70
2015,08,22,12,32,21.70
2015,08,22,12,33,21.70
2015,08,22,12,34,21.70
2015,08,22,12,35,21.70
2015,08,22,12,36,21.60
2015,08,22,12,37,21.60
2015,08,22,12,38,21.60
2015,08,22,12,39,21.60
2015,08,22,12,40,21.60
2015,08,22,12,41,21.60
2015,08,22,12,42,21.60
2015,08,22,12,43,21.70
2015,08,22,12,44,21.80
2015,08,22,12,45,21.80
2015,08,22,12,46,21.90
2015,08,22,12,47,21.90
2015,08,22,12,48,21.80
2015,08,22,12,49,21.80
2015,08,22,12,50,21.80
2015,08,22,12,51,21.90
2015,08,22,12,52,21.90
2015,08,22,12,53,21.90
2015,08,22,12,54,21.90
2015,08,22,12,55,21.90
2015,08,22,12,56,22.00
2015,08,22,12,57,22.10
2015,08,22,12,58,22.00
2015,08,22,12,59,22.00
2015,08,22,13,00,21.90
2015,08,22,13,01,21.90
2015,08,22,13,02,21.90
2015,08,22,13,03,21.90
2015,08,22,13,04,21.90
2015,08,22,13,05,21.90
2015,08,22,13,06,22.00
2015,08,22,13,07,22.00
2015,08,22,13,08,22.10
2015,08,22,13,09,22.10
2015,08,22,13,10,22.10
2015,08,22,13,11,22.20
2015,08,22,13,12,22.20
2015,08,22,13,13,22.30
2015,08,22,13,14,22.30
2015,08,22,13,15,22.40
2015,08,22,13,16,22.40
2015,08,22,13,17,22.40
2015,08,22,13,18,22.40
2015,08,22,13,19,22.40
2015,08,22,13,20,22.30
2015,08,22,13,21,22.30
2015,08,22,13,22,22.40
2015,08,22,13,23,22.40
2015,08,22,13,24,22.30
2015,08,22,13,25,22.30
2015,08,22,13,26,22.30
2015,08,22,13,27,22.20
2015,08,22,13,28,22.20
2015,08,22,13,29,22.20
2015,08,22,13,30,22.10
2015,08,22,13,31,22.10
2015,08,22,13,32,22.10
2015,08,22,13,33,22.10
2015,08,22,13,34,22.10
2015,08,22,13,35,22.10
2015,08,22,13,36,22.10
2015,08,22,13,37,22.20
2015,08,22,13,38,22.20
2015,08,22,13,39,22.30
2015,08,22,13,40,22.40
2015,08,22,13,41,22.40
2015,08,22,13,42,22.50
2015,08,22,13,43,22.50
2015,08,22,13,44,22.50
2015,08,22,13,45,22.60
2015,08,22,13,46,22.60
2015,08,22,13,47,22.50
2015,08,22,13,48,22.40
2015,08,22,13,49,22.40
2015,08,22,13,50,22.40
2015,08,22,13,51,22.40
2015,08,22,13,52,22.50
2015,08,22,13,53,22.50
2015,08,22,13,54,22.60
2015,08,22,13,55,22.60
2015,08,22,13,56,22.60
2015,08,22,13,57,22.60
2015,08,22,13,58,22.60
2015,08,22,13,59,22.60
2015,08,22,14,00,22.60
2015,08,22,14,01,22.50
2015,08,22,14,02,22.50
2015,08,22,14,03,22.60
2015,08,22,14,04,22.60
2015,08,22,14,05,22.60
2015,08,22,14,06,22.60
2015,08,22,14,07,22.60
2015,08,22,14,08,22.50
2015,08,22,14,09,22.50
2015,08,22,14,10,22.50
2015,08,22,14,11,22.40
2015,08,22,14,12,22.40
2015,08,22,14,13,22.40
2015,08,22,14,14,22.50
2015,08,22,14,15,22.50
2015,08,22,14,16,22.50
2015,08,22,14,17,22.50
2015,08,22,14,18,22.50
2015,08,22,14,19,22.50
2015,08,22,14,20,22.50
2015,08,22,14,21,22.60
2015,08,22,14,22,22.70
2015,08,22,14,23,22.70
2015,08,22,14,24,22.80
2015,08,22,14,25,22.80
2015,08,22,14,26,22.80
2015,08,22,14,27,22.80
2015,08,22,14,28,22.80
2015,08,22,14,29,22.80
2015,08,22,14,30,22.80
2015,08,22,14,31,22.80
2015,08,22,14,32,22.80
2015,08,22,14,33,22.80
2015,08,22,14,34,22.80
2015,08,22,14,35,22.80
2015,08,22,14,36,22.80
2015,08,22,14,37,22.80
2015,08,22,14,38,22.80
2015,08,22,14,39,22.80
2015,08,22,14,40,22.90
2015,08,22,14,41,23.00
2015,08,22,14,42,23.10
2015,08,22,14,43,23.10
2015,08,22,14,44,23.20
2015,08,22,14,45,23.30
2015,08,22,14,46,23.30
2015,08,22,14,47,23.40
2015,08,22,14,48,23.40
2015,08,22,14,49,23.40
2015,08,22,14,50,23.40
2015,08,22,14,51,23.40
2015,08,22,14,52,23.40
2015,08,22,14,53,23.40
2015,08,22,14,54,23.40
2015,08,22,14,55,23.40
2015,08,22,14,56,23.50
2015,08,22,14,57,23.50
2015,08,22,14,58,23.50
2015,08,22,14,59,23.50
2015,08,22,15,00,23.50
2015,08,22,15,01,23.50
2015,08,22,15,02,23.60
2015,08,22,15,03,23.60
2015,08,22,15,04,23.70
2015,08,22,15,05,23.70
2015,08,22,15,06,23.80
2015,08,22,15,07,23.90
2015,08,22,15,08,24.00
2015,08,22,15,09,24.10
2015,08,22,15,10,24.20
2015,08,22,15,11,24.20
2015,08,22,15,12,24.30
2015,08,22,15,13,24.30
2015,08,22,15,14,24.30
2015,08,22,15,15,24.30
2015,08,22,15,16,24.30
2015,08,22,15,17,24.30
2015,08,22,15,18,24.30
2015,08,22,15,19,24.30
2015,08,22,15,20,24.30
2015,08,22,15,21,24.30
2015,08,22,15,22,24.30
2015,08,22,15,23,24.30
2015,08,22,15,24,24.30
2015,08,22,15,25,24.30
2015,08,22,15,26,24.30
2015,08,22,15,27,24.30
2015,08,22,15,28,24.40
2015,08,22,15,29,24.40
2015,08,22,15,30,24.40
2015,08,22,15,31,24.40
2015,08,22,15,32,24.40
2015,08,22,15,33,24.40
2015,08,22,15,34,24.40
2015,08,22,15,35,24.40
2015,08,22,15,36,24.40
2015,08,22,15,37,24.40
2015,08,22,15,38,24.40
2015,08,22,15,39,24.40
2015,08,22,15,40,24.40
2015,08,22,15,41,24.30
2015,08,22,15,42,24.30
2015,08,22,15,43,24.30
2015,08,22,15,44,24.20
2015,08,22,15,45,24.20
2015,08,22,15,46,24.20
2015,08,22,15,47,24.30
2015,08,22,15,48,24.40
2015,08,22,15,49,24.40
2015,08,22,15,50,24.40
2015,08,22,15,51,24.40
2015,08,22,15,52,24.40
2015,08,22,15,53,24.40
2015,08,22,15,54,24.40
2015,08,22,15,55,24.40
2015,08,22,15,56,24.40
2015,08,22,15,57,24.40
2015,08,22,15,58,24.50
2015,08,22,15,59,24.50
2015,08,22,16,00,24.50
2015,08,22,16,01,24.60
2015,08,22,16,02,24.60
2015,08,22,16,03,24.60
2015,08,22,16,04,24.60
2015,08,22,16,05,24.60
2015,08,22,16,06,24.60
2015,08,22,16,07,24.60
2015,08,22,16,08,24.60
2015,08,22,16,09,24.70
2015,08,22,16,10,24.70
2015,08,22,16,11,24.70
2015,08,22,16,12,24.70
2015,08,22,16,13,24.80
2015,08,22,16,14,24.80
2015,08,22,16,15,24.80
2015,08,22,16,16,24.90
2015,08,22,16,17,24.90
2015,08,22,16,18,24.90
2015,08,22,16,19,25.00
2015,08,22,16,20,25.00
2015,08,22,16,21,25.10
2015,08,22,16,22,25.10
2015,08,22,16,23,25.10
2015,08,22,16,24,25.10
2015,08,22,16,25,25.20
2015,08,22,16,26,25.20
2015,08,22,16,27,25.20
2015,08,22,16,28,25.20
2015,08,22,16,29,25.20
2015,08,22,16,30,25.30
2015,08,22,16,31,25.30
2015,08,22,16,32,25.30
2015,08,22,16,33,25.30
2015,08,22,16,34,25.30
2015,08,22,16,35,25.30
2015,08,22,16,36,25.30
2015,08,22,16,37,25.30
2015,08,22,16,38,25.30
2015,08,22,16,39,25.30
2015,08,22,16,40,25.30
2015,08,22,16,41,25.30
2015,08,22,16,42,25.30
2015,08,22,16,43,25.40
2015,08,22,16,44,25.40
2015,08,22,16,45,25.40
2015,08,22,16,46,25.50
2015,08,22,16,47,25.50
2015,08,22,16,48,25.60
2015,08,22,16,49,25.60
2015,08,22,16,50,25.60
2015,08,22,16,51,25.60
2015,08,22,16,52,25.60
2015,08,22,16,53,25.60
2015,08,22,16,54,25.60
2015,08,22,16,55,25.60
2015,08,22,16,56,25.60
2015,08,22,16,57,25.60
2015,08,22,16,58,25.60
2015,08,22,16,59,25.60
2015,08,22,17,00,25.60
2015,08,22,17,01,25.70
2015,08,22,17,02,25.70
2015,08,22,17,03,25.70
2015,08,22,17,04,25.70
2015,08,22,17,05,25.70
2015,08,22,17,06,25.70
2015,08,22,17,07,25.70
2015,08,22,17,08,25.60
2015,08,22,17,09,25.60
2015,08,22,17,10,25.60
2015,08,22,17,11,25.70
2015,08,22,17,12,25.70
2015,08,22,17,13,25.70
2015,08,22,17,14,25.70
2015,08,22,17,15,25.80
2015,08,22,17,16,25.80
2015,08,22,17,17,25.80
2015,08,22,17,18,25.80
2015,08,22,17,19,25.80
2015,08,22,17,20,25.90
2015,08,22,17,21,25.90
2015,08,22,17,22,26.00
2015,08,22,17,23,26.00